Home > Weather > Brazil > Rio de Janeiro > Past weeks

Flag for Brazil Weather past 2 weeks in Rio de Janeiro, Rio de Janeiro, Brazil

73 °F

Passing clouds.

Feels Like: 70 °F
Forecast: 72 / 80 °F
Wind: 2 mph from South

Location: Rio De Janeiro Airport

Current Time: Dec 2, 2015 at 1:46:32 AM

Latest Report: Dec 2, 2015 at 1:00 AM

Visibility: 6 mi

Pressure: 30.04 "Hg

Humidity: 94%

Dew point: 72 °F

Location of Rio de JaneiroLocation

Historic Weather in Rio de Janeiro — Graph


Rio de Janeiro temperature yesterday

Maximum temperature yesterday: 81 °F (at 1:00 PM)
Minimum temperature yesterday: 70 °F (at 1:00 AM)
Average temperature yesterday: 73 °F

Past Weeks' High & Low Weather Summary

High91 °F (Nov 19, 12:00 PM)100% (Nov 18, 11:00 PM)30.18 "Hg (Nov 18, 11:00 PM)
Low68 °F (Nov 21, 10:00 AM)56% (Nov 20, 3:00 PM)29.56 "Hg (Nov 20, 2:00 PM)
Average77 °F87%29.84 "Hg
* Reported Midnight between Nov 16 and Nov 17 — Midnight between Dec 1 and Dec 2, Rio de Janeiro, Weather by CustomWeather, © 2015

Note: Actual official high and low records may vary slightly from our data, if they occured in-between our weather recording intervals... More about our weather records


Rio de Janeiro weather history for previous 24 hours

Time TempWeatherWind HumidityBarometerVisibility
12:00 AM
Wed, Dec 2
73 °FPassing clouds.3 mph94%30.04 "Hg6 mi
11:00 PM
Tue, Dec 1
73 °FMostly cloudy.6 mph94%30.07 "Hg4 mi
10:00 PM73 °FOvercast.6 mph89%30.07 "Hg4 mi
9:00 PM73 °FOvercast.6 mph89%30.04 "Hg4 mi
8:00 PM73 °FOvercast.6 mph89%30.04 "Hg4 mi
7:00 PM73 °FCloudy.7 mph89%30.04 "Hg6 mi
6:00 PM73 °FMostly cloudy.7 mph89%30.04 "HgN/A
5:00 PM75 °FMostly cloudy.9 mph83%30.04 "HgN/A
4:00 PM75 °FMostly cloudy.12 mph83%30.04 "HgN/A
3:00 PM77 °FMostly cloudy.12 mph79%30.04 "HgN/A
2:00 PM81 °FBroken clouds.12 mph70%30.07 "HgN/A
1:00 PM81 °FBroken clouds.9 mph70%30.07 "HgN/A
12:00 PM79 °FPartly sunny.5 mph74%30.09 "HgN/A
11:00 AM75 °FPartly sunny.3 mph89%30.09 "HgN/A
10:00 AM73 °FPartly sunny.2 mph94%30.09 "Hg5 mi
9:00 AM72 °FMostly cloudy.3 mph94%30.09 "Hg4 mi
8:00 AM70 °FDrizzle. Fog.6 mph100%30.09 "Hg2 mi
7:00 AM70 °FDrizzle. Fog.5 mph100%30.09 "Hg2 mi
6:00 AM70 °FDrizzle. Fog.3 mph100%30.07 "Hg3 mi
5:00 AM70 °FDrizzle. Fog.5 mph100%30.04 "Hg3 mi
4:00 AM70 °FFog.6 mph100%30.04 "Hg3 mi
3:00 AM70 °FFog.5 mph100%30.04 "Hg3 mi
2:00 AM70 °FFog.3 mph100%30.07 "Hg3 mi
1:00 AM70 °FLight rain. Fog.7 mph100%30.09 "Hg2 mi
Weather by CustomWeather, © 2015

See weather overviewHow to use our weather pages